URO688F EGHH-EDDF

Flight info

Callsign URO688F
Flight time N/A
Altitude 37000
Route GWC N16 BIG/N0371F230 L9 DVR/N0449F370 UL9 KONAN DCT KOK UL607 FERDI DCT DENOX DCT REMBA UL607 SPI T180 RASVO RASVO1A
Aircraft A346/H-SDE2E3FGHIJ3J4J5M1RWXYZ/LB1D1

Departure

Time 2026-05-06 20:22
Airport Bournemouth Airport (EGHH)

Arrival

Time N/A
Airport Frankfurt Main Airport (EDDF)
Time Latitude Longitude Altitude Speed Heading
2026-05-06 19:16 50.78607 -1.84236 54 ft 0 kts 255°
2026-05-06 20:08 50.78608 -1.84229 54 ft 3 kts 255°
2026-05-06 20:08 50.78614 -1.84188 50 ft 4 kts 256°
2026-05-06 20:08 50.78620 -1.84154 54 ft 4 kts 250°
2026-05-06 20:09 50.78623 -1.84143 54 ft 4 kts 202°
2026-05-06 20:09 50.78639 -1.84142 47 ft 4 kts 168°
2026-05-06 20:09 50.78613 -1.84131 49 ft 4 kts 165°
2026-05-06 20:10 50.78588 -1.84120 50 ft 2 kts 165°
2026-05-06 20:10 50.78567 -1.84111 48 ft 4 kts 165°
2026-05-06 20:10 50.78541 -1.84101 52 ft 4 kts 166°
2026-05-06 20:10 50.78521 -1.84093 53 ft 0 kts 166°
2026-05-06 20:16 50.78502 -1.84085 49 ft 7 kts 163°
2026-05-06 20:16 50.78426 -1.84049 52 ft 15 kts 165°
2026-05-06 20:17 50.78306 -1.84003 48 ft 20 kts 164°
2026-05-06 20:17 50.78202 -1.83955 52 ft 17 kts 163°
2026-05-06 20:17 50.78139 -1.83926 51 ft 1 kts 163°
2026-05-06 20:17 50.78100 -1.83911 51 ft 10 kts 176°
2026-05-06 20:18 50.78054 -1.83982 47 ft 12 kts 244°
2026-05-06 20:18 50.78020 -1.84139 51 ft 18 kts 254°
2026-05-06 20:18 50.77986 -1.84349 52 ft 22 kts 257°
2026-05-06 20:18 50.77950 -1.84596 54 ft 25 kts 257°
2026-05-06 20:19 50.77909 -1.84873 50 ft 27 kts 255°
2026-05-06 20:19 50.77866 -1.85106 51 ft 19 kts 253°
2026-05-06 20:19 50.77829 -1.85337 55 ft 24 kts 253°
2026-05-06 20:19 50.77786 -1.85577 52 ft 17 kts 256°
2026-05-06 20:20 50.77750 -1.85681 54 ft 3 kts 218°
2026-05-06 20:20 50.77744 -1.85688 54 ft 4 kts 219°
2026-05-06 20:20 50.77735 -1.85729 51 ft 6 kts 302°
2026-05-06 20:20 50.77755 -1.85714 52 ft 7 kts 58°
2026-05-06 20:21 50.77777 -1.85633 54 ft 0 kts 76°
2026-05-06 20:21 50.77781 -1.85610 49 ft 12 kts 75°
2026-05-06 20:22 50.77874 -1.85068 53 ft 93 kts 75°
2026-05-06 20:22 50.78110 -1.83692 59 ft 162 kts 75°
2026-05-06 20:22 50.78400 -1.81888 778 ft 167 kts 74°
2026-05-06 20:22 50.78692 -1.80127 1785 ft 166 kts 73°
2026-05-06 20:23 50.79014 -1.78302 2655 ft 179 kts 72°
2026-05-06 20:23 50.79349 -1.76377 3678 ft 181 kts 73°
2026-05-06 20:23 50.79683 -1.74391 4378 ft 194 kts 73°
2026-05-06 20:23 50.79999 -1.72216 4965 ft 213 kts 79°
2026-05-06 20:24 50.80173 -1.69762 5522 ft 235 kts 83°
2026-05-06 20:24 50.80367 -1.67085 6212 ft 253 kts 73°
2026-05-06 20:24 50.80981 -1.64382 6896 ft 270 kts 64°
2026-05-06 20:24 50.81784 -1.61606 7756 ft 280 kts 63°
2026-05-06 20:25 50.82602 -1.58794 8367 ft 282 kts 64°
2026-05-06 20:25 50.83405 -1.55939 9126 ft 291 kts 65°
2026-05-06 20:25 50.84206 -1.53004 10363 ft 289 kts 65°
2026-05-06 20:25 50.85001 -1.50026 11319 ft 301 kts 66°
2026-05-06 20:26 50.85826 -1.46889 12191 ft 313 kts 66°
2026-05-06 20:26 50.86671 -1.43658 13298 ft 319 kts 66°
2026-05-06 20:26 50.87524 -1.40386 14413 ft 324 kts 66°
2026-05-06 20:26 50.88400 -1.37017 15417 ft 331 kts 66°
2026-05-06 20:27 50.89284 -1.33616 16263 ft 337 kts 66°
2026-05-06 20:27 50.90183 -1.30149 16814 ft 341 kts 66°
2026-05-06 20:27 50.91090 -1.26644 17023 ft 343 kts 66°
2026-05-06 20:27 50.91996 -1.23136 17023 ft 343 kts 67°
2026-05-06 20:28 50.92900 -1.19629 17026 ft 343 kts 67°
2026-05-06 20:28 50.93821 -1.16056 17034 ft 362 kts 67°
2026-05-06 20:28 50.94798 -1.12260 17027 ft 375 kts 67°
2026-05-06 20:28 50.95788 -1.08403 17020 ft 379 kts 67°
2026-05-06 20:29 50.96799 -1.04459 17355 ft 392 kts 67°
2026-05-06 20:29 50.97826 -1.00445 18469 ft 392 kts 67°
2026-05-06 20:29 50.98850 -0.96433 19503 ft 394 kts 67°
2026-05-06 20:29 50.99883 -0.92380 20293 ft 399 kts 67°
2026-05-06 20:30 51.00927 -0.88276 20804 ft 402 kts 67°
2026-05-06 20:30 51.03031 -0.79985 21566 ft 415 kts 67°
2026-05-06 20:30 51.04111 -0.75721 22597 ft 415 kts 67°
2026-05-06 20:31 51.05207 -0.71381 23587 ft 419 kts 67°
2026-05-06 20:31 51.06301 -0.67043 24297 ft 425 kts 68°
2026-05-06 20:31 51.07392 -0.62706 25012 ft 430 kts 68°
2026-05-06 20:31 51.08523 -0.58200 25758 ft 435 kts 68°
2026-05-06 20:32 51.09653 -0.53691 26493 ft 440 kts 68°
2026-05-06 20:32 51.10776 -0.49203 27217 ft 444 kts 68°
2026-05-06 20:32 51.11923 -0.44605 27967 ft 449 kts 68°
2026-05-06 20:32 51.13079 -0.39958 28696 ft 453 kts 68°
2026-05-06 20:33 51.14259 -0.35267 29401 ft 457 kts 66°
2026-05-06 20:33 51.15594 -0.30641 30306 ft 456 kts 63°
2026-05-06 20:33 51.17098 -0.26209 31180 ft 452 kts 59°
2026-05-06 20:33 51.18769 -0.21970 32063 ft 449 kts 54°
2026-05-06 20:34 51.19988 -0.19226 32614 ft 448 kts 52°
2026-05-06 20:34 51.21920 -0.15343 33414 ft 446 kts 48°
2026-05-06 20:34 51.24000 -0.11664 34190 ft 445 kts 45°
2026-05-06 20:34 51.26119 -0.08150 34725 ft 445 kts 46°
2026-05-06 20:35 51.28070 -0.04294 35000 ft 446 kts 54°
2026-05-06 20:35 51.30793 0.04586 35002 ft 447 kts 72°
2026-05-06 20:36 51.31693 0.14399 34991 ft 447 kts 91°
2026-05-06 20:36 51.30992 0.24265 34994 ft 446 kts 99°
2026-05-06 20:37 51.30016 0.34067 35025 ft 445 kts 99°
2026-05-06 20:37 51.29053 0.43902 35019 ft 448 kts 99°
2026-05-06 20:38 51.28101 0.53741 35018 ft 447 kts 99°
2026-05-06 20:38 51.27155 0.63525 35006 ft 447 kts 99°
2026-05-06 20:39 51.26197 0.73359 35019 ft 447 kts 99°
2026-05-06 20:39 51.25231 0.83184 35014 ft 447 kts 99°
2026-05-06 20:40 51.24257 0.93007 35018 ft 447 kts 99°
2026-05-06 20:40 51.23274 1.02822 35018 ft 447 kts 99°
2026-05-06 20:41 51.22287 1.12614 35018 ft 447 kts 99°
2026-05-06 20:41 51.21290 1.22413 35019 ft 447 kts 99°
2026-05-06 20:42 51.20285 1.32204 35014 ft 447 kts 99°
2026-05-06 20:42 51.19272 1.41985 35011 ft 447 kts 99°
2026-05-06 20:43 51.18249 1.51769 35010 ft 446 kts 99°
2026-05-06 20:43 51.17222 1.61535 35001 ft 446 kts 99°
2026-05-06 20:44 51.16184 1.71310 34998 ft 446 kts 99°
2026-05-06 20:44 51.15140 1.81066 35007 ft 446 kts 100°
2026-05-06 20:45 51.14085 1.90824 34998 ft 446 kts 100°
2026-05-06 20:45 51.13095 2.00582 35005 ft 446 kts 97°
2026-05-06 20:46 51.12543 2.10423 34996 ft 446 kts 94°
2026-05-06 20:46 51.12055 2.20285 34998 ft 446 kts 94°
2026-05-06 20:47 51.11555 2.30140 34997 ft 446 kts 94°
2026-05-06 20:47 51.11047 2.39937 34993 ft 445 kts 94°
2026-05-06 20:48 51.10527 2.49769 34988 ft 445 kts 95°
2026-05-06 20:48 51.09979 2.59605 34994 ft 445 kts 96°
2026-05-06 20:49 51.08909 2.69319 34980 ft 445 kts 103°
2026-05-06 20:49 51.07230 2.78826 34983 ft 447 kts 106°
2026-05-06 20:49 51.06337 2.83648 35191 ft 456 kts 106°
2026-05-06 20:50 51.05432 2.88530 35747 ft 457 kts 107°
2026-05-06 20:50 51.04536 2.93368 36416 ft 455 kts 107°
2026-05-06 20:50 51.03639 2.98202 36872 ft 456 kts 107°
2026-05-06 20:50 51.02731 3.03079 36996 ft 458 kts 107°
2026-05-06 20:51 51.01820 3.07956 36989 ft 457 kts 107°
2026-05-06 20:51 51.00003 3.17653 36984 ft 457 kts 107°
2026-05-06 20:52 50.98183 3.27332 36971 ft 457 kts 107°
2026-05-06 20:52 50.96355 3.37005 36967 ft 457 kts 107°
2026-05-06 20:53 50.94518 3.46674 36967 ft 457 kts 108°
2026-05-06 20:53 50.92672 3.56331 36967 ft 457 kts 108°
2026-05-06 20:54 50.91135 3.66052 36973 ft 457 kts 101°
2026-05-06 20:54 50.90198 3.76039 36975 ft 457 kts 98°
2026-05-06 20:55 50.89371 3.86052 36969 ft 458 kts 98°
2026-05-06 20:55 50.88483 3.96045 36969 ft 457 kts 101°
2026-05-06 20:56 50.87038 4.05848 36964 ft 457 kts 107°
2026-05-06 20:56 50.84921 4.15335 36974 ft 457 kts 112°
2026-05-06 20:57 50.82635 4.24729 36975 ft 457 kts 112°
2026-05-06 20:57 50.80346 4.34120 36975 ft 457 kts 112°
2026-05-06 20:58 50.78053 4.43505 36974 ft 457 kts 112°
2026-05-06 20:58 50.75757 4.52878 36974 ft 457 kts 112°
2026-05-06 20:59 50.73453 4.62246 36972 ft 457 kts 112°
2026-05-06 20:59 50.71160 4.71531 36956 ft 457 kts 112°
2026-05-06 21:00 50.68837 4.80891 36959 ft 457 kts 112°
2026-05-06 21:00 50.66518 4.90231 36960 ft 457 kts 111°
2026-05-06 21:01 50.64496 4.99753 36962 ft 457 kts 109°
2026-05-06 21:01 50.62517 5.09406 36962 ft 474 kts 109°
2026-05-06 21:02 50.60453 5.19367 36949 ft 468 kts 109°
2026-05-06 21:02 50.58466 5.28968 36958 ft 459 kts 109°
2026-05-06 21:03 50.56485 5.38502 36956 ft 457 kts 110°
2026-05-06 21:03 50.54478 5.48007 36954 ft 457 kts 110°
2026-05-06 21:04 50.52491 5.57447 36945 ft 457 kts 110°
2026-05-06 21:04 50.50585 5.66993 36944 ft 457 kts 108°
2026-05-06 21:05 50.48791 5.76649 36913 ft 458 kts 108°
2026-05-06 21:05 50.47903 5.81416 36535 ft 453 kts 108°
2026-05-06 21:05 50.47006 5.86199 35543 ft 462 kts 107°
2026-05-06 21:05 50.46086 5.91077 34712 ft 468 kts 107°
2026-05-06 21:06 50.45161 5.95971 34164 ft 465 kts 107°
2026-05-06 21:06 50.44243 6.00826 33591 ft 463 kts 107°
2026-05-06 21:06 50.43330 6.05662 32891 ft 462 kts 108°
2026-05-06 21:06 50.42414 6.10499 32134 ft 462 kts 108°
2026-05-06 21:07 50.41490 6.15340 31362 ft 463 kts 108°
2026-05-06 21:07 50.40561 6.20185 30621 ft 463 kts 108°
2026-05-06 21:07 50.39633 6.25024 29885 ft 463 kts 108°
2026-05-06 21:07 50.38700 6.29868 28974 ft 464 kts 108°
2026-05-06 21:08 50.37765 6.34715 28206 ft 462 kts 108°
2026-05-06 21:08 50.36922 6.39557 27616 ft 457 kts 104°
2026-05-06 21:08 50.36349 6.44441 26925 ft 456 kts 96°
2026-05-06 21:08 50.36442 6.49386 26369 ft 452 kts 83°
2026-05-06 21:09 50.37136 6.54164 25857 ft 448 kts 72°
2026-05-06 21:09 50.38251 6.58694 25374 ft 443 kts 67°
2026-05-06 21:09 50.39462 6.63115 24897 ft 439 kts 66°
2026-05-06 21:09 50.40661 6.67504 24406 ft 435 kts 67°
2026-05-06 21:10 50.41826 6.71875 23958 ft 431 kts 67°
2026-05-06 21:10 50.42921 6.76237 23483 ft 427 kts 71°
2026-05-06 21:10 50.43738 6.80700 22970 ft 423 kts 77°
2026-05-06 21:10 50.44244 6.85232 22512 ft 418 kts 83°
2026-05-06 21:11 50.44579 6.89744 22067 ft 413 kts 84°
2026-05-06 21:11 50.44873 6.94139 21657 ft 407 kts 84°
2026-05-06 21:11 50.45168 6.98533 21246 ft 401 kts 84°
2026-05-06 21:11 50.45434 7.02863 20837 ft 397 kts 86°
2026-05-06 21:12 50.45541 7.07177 20400 ft 393 kts 90°
2026-05-06 21:12 50.45325 7.11482 20106 ft 396 kts 99°
2026-05-06 21:12 50.44867 7.15758 19865 ft 397 kts 101°
2026-05-06 21:12 50.44413 7.20037 19609 ft 396 kts 100°
2026-05-06 21:13 50.43966 7.24298 19360 ft 395 kts 100°
2026-05-06 21:13 50.43507 7.28541 19117 ft 394 kts 101°
2026-05-06 21:13 50.43044 7.32776 18875 ft 393 kts 101°
2026-05-06 21:13 50.42580 7.36992 18628 ft 391 kts 101°
2026-05-06 21:14 50.42115 7.41217 18384 ft 390 kts 101°
2026-05-06 21:14 50.41653 7.45419 18139 ft 390 kts 101°
2026-05-06 21:14 50.41191 7.49601 17872 ft 389 kts 101°
2026-05-06 21:14 50.40726 7.53787 17597 ft 388 kts 101°
2026-05-06 21:15 50.40260 7.57976 17328 ft 386 kts 101°
2026-05-06 21:15 50.39797 7.62118 17054 ft 385 kts 101°
2026-05-06 21:15 50.39333 7.66249 16788 ft 384 kts 101°
2026-05-06 21:15 50.38871 7.70367 16527 ft 382 kts 101°
2026-05-06 21:16 50.38408 7.74472 16268 ft 381 kts 101°
2026-05-06 21:16 50.37947 7.78551 16000 ft 379 kts 101°
2026-05-06 21:16 50.37486 7.82620 15746 ft 378 kts 101°
2026-05-06 21:16 50.37024 7.86676 15493 ft 377 kts 101°
2026-05-06 21:17 50.36567 7.90714 15238 ft 375 kts 101°
2026-05-06 21:17 50.36108 7.94727 14990 ft 373 kts 101°
2026-05-06 21:17 50.35648 7.98722 14738 ft 372 kts 101°
2026-05-06 21:17 50.35188 8.02705 14492 ft 371 kts 101°
2026-05-06 21:18 50.34885 8.05330 14307 ft 370 kts 101°
2026-05-06 21:18 50.34425 8.09296 13943 ft 368 kts 101°
2026-05-06 21:18 50.33968 8.13226 13529 ft 365 kts 101°
2026-05-06 21:18 50.33513 8.17125 13062 ft 362 kts 101°
2026-05-06 21:19 50.33061 8.20987 12613 ft 359 kts 101°
2026-05-06 21:19 50.32611 8.24821 12183 ft 356 kts 101°
2026-05-06 21:19 50.32164 8.28620 11751 ft 353 kts 101°
2026-05-06 21:19 50.31720 8.32389 11306 ft 350 kts 102°
2026-05-06 21:20 50.31279 8.36135 10945 ft 349 kts 102°
2026-05-06 21:20 50.30835 8.39878 10880 ft 351 kts 102°
2026-05-06 21:20 50.30391 8.43598 10863 ft 339 kts 102°
2026-05-06 21:20 50.29970 8.47138 10841 ft 322 kts 102°
2026-05-06 21:21 50.29562 8.50548 10571 ft 316 kts 102°
2026-05-06 21:21 50.29160 8.53896 10284 ft 310 kts 102°
2026-05-06 21:21 50.28763 8.57191 9982 ft 305 kts 102°
2026-05-06 21:21 50.28371 8.60430 9678 ft 301 kts 103°
2026-05-06 21:22 50.27984 8.63631 9324 ft 297 kts 103°
2026-05-06 21:22 50.27599 8.66798 8940 ft 296 kts 103°
2026-05-06 21:22 50.27216 8.69947 8571 ft 294 kts 102°
2026-05-06 21:22 50.26833 8.73083 8193 ft 292 kts 102°
2026-05-06 21:23 50.26453 8.76197 7848 ft 290 kts 102°
2026-05-06 21:23 50.26074 8.79290 7488 ft 288 kts 102°
2026-05-06 21:23 50.25698 8.82363 7135 ft 286 kts 102°
2026-05-06 21:23 50.25328 8.85371 6867 ft 284 kts 102°
2026-05-06 21:24 50.24738 8.88337 6839 ft 282 kts 122°
2026-05-06 21:24 50.23457 8.90536 6845 ft 276 kts 149°
2026-05-06 21:24 50.21738 8.91836 6851 ft 274 kts 161°
2026-05-06 21:24 50.19951 8.92860 6852 ft 273 kts 163°
2026-05-06 21:25 50.18129 8.93849 6860 ft 273 kts 163°
2026-05-06 21:25 50.16443 8.94749 6857 ft 273 kts 163°
2026-05-06 21:25 50.14635 8.95633 6848 ft 270 kts 172°
2026-05-06 21:25 50.12825 8.95628 6569 ft 263 kts 195°
2026-05-06 21:26 50.11182 8.94358 6045 ft 260 kts 218°
2026-05-06 21:26 50.09789 8.92555 5331 ft 260 kts 223°
2026-05-06 21:26 50.08479 8.90697 4836 ft 253 kts 227°
2026-05-06 21:26 50.07601 8.88471 4534 ft 235 kts 257°
2026-05-06 21:27 50.07564 8.86013 4281 ft 222 kts 279°
2026-05-06 21:27 50.07858 8.83708 4147 ft 214 kts 283°
2026-05-06 21:27 50.08210 8.81432 4032 ft 223 kts 283°
2026-05-06 21:27 50.08592 8.79022 4024 ft 231 kts 283°
2026-05-06 21:28 50.08980 8.76575 4027 ft 233 kts 284°
2026-05-06 21:28 50.09358 8.74116 4024 ft 234 kts 284°
2026-05-06 21:28 50.09732 8.71643 4014 ft 235 kts 280°
2026-05-06 21:28 50.10108 8.69158 4014 ft 236 kts 296°
2026-05-06 21:29 50.11181 8.67250 4019 ft 237 kts 327°
2026-05-06 21:29 50.12748 8.66513 4021 ft 239 kts 359°
2026-05-06 21:29 50.14343 8.67181 4019 ft 244 kts 30°
2026-05-06 21:29 50.15515 8.69095 4015 ft 249 kts 61°
2026-05-06 21:30 50.16144 8.71618 4021 ft 250 kts 71°
2026-05-06 21:30 50.16633 8.74226 4016 ft 250 kts 73°
2026-05-06 21:30 50.17094 8.76853 4013 ft 251 kts 73°